Total_Precipitation_Accumulation
1.94 2.02 1.73 1.64 1.59 1.77 2.01 1.98 1.86 1.94 2.08 2.11 1.94 1.83 1.67 1.37 1.24 1.19 1.30 1.62 1.63 1.65 1.87 1.88 1.81 1.70 1.55 1.35 1.22 1.12 1.06 0.97 0.84 0.68 0.61 0.49 0.39 0.32 0.21 0.14 0.11 0.10 0.07
1.86 1.73 1.71 1.70 1.61 1.74 1.80 1.85 1.89 2.09 2.18 2.28 2.00 1.86 1.72 1.58 1.45 1.40 1.33 1.60 1.63 1.54 1.67 1.94 2.01 1.98 1.96 1.78 1.56 1.43 1.30 1.21 1.01 0.75 0.65 0.59 0.48 0.40 0.32 0.26 0.23 0.16 0.11
1.78 1.76 1.67 1.55 1.58 1.67 1.77 1.81 1.84 1.95 1.86 1.93 1.89 1.86 1.79 1.67 1.60 1.48 1.39 1.37 1.26 1.42 1.60 1.79 1.94 1.99 2.09 2.02 1.95 1.85 1.62 1.38 1.14 0.85 0.65 0.61 0.54 0.44 0.39 0.35 0.33 0.27 0.20
1.55 1.56 1.42 1.39 1.48 1.39 1.40 1.46 1.44 1.47 1.52 1.65 1.66 1.57 1.56 1.56 1.50 1.48 1.39 1.26 1.23 1.06 1.37 1.71 1.82 1.74 1.91 2.11 2.30 2.34 1.95 1.49 1.19 0.96 0.75 0.62 0.58 0.47 0.36 0.31 0.29 0.31 0.24
1.04 1.06 1.01 1.03 1.07 1.06 1.06 1.01 1.18 1.24 1.31 1.43 1.45 1.31 1.26 1.37 1.36 1.35 1.30 1.12 1.20 1.11 1.11 1.29 1.54 1.51 1.75 2.14 2.48 2.59 2.34 1.82 1.38 1.19 1.03 0.87 0.79 0.63 0.44 0.35 0.29 0.26 0.22
0.87 0.82 0.77 0.78 0.74 0.76 0.82 0.86 0.92 0.98 1.00 1.04 1.03 1.00 1.04 0.97 1.06 1.09 1.00 1.02 0.98 0.84 0.86 1.02 1.31 1.18 1.51 1.88 2.19 2.34 2.43 2.31 1.89 1.53 1.33 1.27 1.20 0.95 0.59 0.45 0.38 0.32 0.25
0.69 0.71 0.61 0.59 0.55 0.55 0.58 0.60 0.67 0.71 0.71 0.77 0.85 0.82 0.75 0.68 0.72 0.73 0.75 0.84 0.79 0.80 0.88 0.96 1.09 1.14 1.11 1.25 1.43 1.75 2.22 2.41 2.26 1.89 1.61 1.43 1.39 1.20 0.82 0.62 0.50 0.46 0.41
0.51 0.49 0.48 0.45 0.44 0.45 0.50 0.51 0.52 0.52 0.52 0.59 0.68 0.73 0.64 0.58 0.53 0.46 0.56 0.55 0.57 0.77 0.84 0.82 0.90 1.07 1.06 1.22 1.02 1.18 1.71 2.14 2.42 2.31 2.00 1.65 1.45 1.24 1.00 0.83 0.66 0.56 0.50
0.37 0.38 0.37 0.37 0.41 0.41 0.45 0.48 0.45 0.44 0.43 0.43 0.51 0.64 0.62 0.54 0.46 0.40 0.42 0.46 0.55 0.66 0.70 0.84 0.85 0.84 0.87 1.07 1.21 1.16 1.28 1.50 2.08 2.51 2.48 2.02 1.53 1.19 1.06 1.03 0.93 0.78 0.63
0.33 0.30 0.30 0.29 0.29 0.33 0.41 0.39 0.42 0.43 0.41 0.34 0.36 0.44 0.48 0.51 0.52 0.48 0.43 0.43 0.52 0.58 0.60 0.63 0.67 0.78 0.92 1.05 1.15 1.13 0.98 1.07 1.50 2.04 2.37 2.24 1.82 1.40 1.15 1.12 1.29 1.24 0.96
0.37 0.32 0.32 0.29 0.25 0.24 0.27 0.30 0.39 0.44 0.44 0.38 0.35 0.37 0.40 0.41 0.44 0.46 0.38 0.36 0.40 0.38 0.42 0.49 0.61 0.69 0.79 0.99 1.21 1.08 0.88 0.82 0.99 1.36 1.70 1.87 1.84 1.57 1.30 1.22 1.49 1.68 1.49
0.42 0.36 0.34 0.32 0.29 0.25 0.22 0.23 0.30 0.38 0.43 0.44 0.38 0.34 0.40 0.42 0.42 0.45 0.34 0.28 0.31 0.26 0.29 0.34 0.45 0.60 0.73 0.90 0.92 0.91 0.92 0.86 0.87 0.96 1.13 1.32 1.50 1.50 1.43 1.47 1.67 1.90 1.95
0.39 0.33 0.30 0.30 0.28 0.27 0.26 0.25 0.26 0.30 0.35 0.41 0.39 0.37 0.37 0.36 0.42 0.43 0.35 0.29 0.33 0.32 0.42 0.41 0.46 0.65 0.71 0.92 0.91 0.91 0.90 0.87 0.76 0.71 0.76 0.85 0.98 1.17 1.34 1.44 1.61 1.81 1.99
0.44 0.41 0.33 0.28 0.27 0.26 0.25 0.27 0.25 0.26 0.30 0.34 0.34 0.43 0.41 0.31 0.38 0.40 0.41 0.48 0.47 0.49 0.54 0.52 0.60 0.83 1.05 1.08 1.07 0.95 0.77 0.75 0.66 0.61 0.56 0.59 0.65 0.76 0.88 1.00 1.15 1.28 1.40
0.47 0.45 0.39 0.32 0.29 0.29 0.28 0.28 0.26 0.27 0.29 0.32 0.37 0.46 0.47 0.43 0.43 0.43 0.47 0.58 0.66 0.58 0.58 0.66 0.77 0.86 0.96 0.97 0.97 0.86 0.70 0.69 0.62 0.55 0.51 0.48 0.49 0.54 0.61 0.66 0.70 0.77 0.85
0.43 0.42 0.37 0.32 0.33 0.33 0.31 0.32 0.30 0.32 0.34 0.39 0.46 0.51 0.56 0.56 0.56 0.56 0.56 0.64 0.77 0.75 0.70 0.69 0.76 0.77 0.77 0.63 0.66 0.66 0.64 0.65 0.57 0.52 0.49 0.46 0.43 0.44 0.46 0.52 0.56 0.57 0.60
0.45 0.41 0.38 0.35 0.34 0.33 0.34 0.37 0.35 0.34 0.35 0.41 0.45 0.50 0.55 0.61 0.68 0.70 0.74 0.74 0.77 0.87 0.82 0.69 0.79 0.87 0.79 0.63 0.54 0.54 0.55 0.56 0.54 0.53 0.50 0.49 0.47 0.45 0.43 0.42 0.46 0.50 0.49
0.45 0.44 0.41 0.36 0.31 0.29 0.35 0.41 0.40 0.37 0.38 0.40 0.46 0.55 0.57 0.59 0.66 0.73 0.83 0.84 0.85 0.98 0.96 0.82 0.88 0.97 0.89 0.77 0.64 0.56 0.46 0.44 0.46 0.51 0.51 0.51 0.50 0.47 0.44 0.42 0.39 0.38 0.38
0.47 0.47 0.46 0.42 0.36 0.34 0.34 0.37 0.40 0.42 0.45 0.47 0.51 0.59 0.64 0.70 0.72 0.76 0.84 0.86 0.91 1.06 1.10 1.02 0.99 1.10 1.13 0.92 0.72 0.56 0.46 0.46 0.41 0.45 0.49 0.50 0.49 0.46 0.43 0.42 0.42 0.38 0.34
0.51 0.55 0.57 0.56 0.51 0.46 0.41 0.40 0.42 0.42 0.46 0.52 0.60 0.61 0.64 0.74 0.81 0.86 0.92 1.02 1.08 1.16 1.23 1.19 1.20 1.30 1.30 1.17 0.95 0.67 0.58 0.56 0.50 0.43 0.47 0.49 0.47 0.44 0.41 0.37 0.35 0.36 0.36
0.70 0.79 0.81 0.76 0.70 0.61 0.51 0.50 0.50 0.44 0.50 0.51 0.56 0.61 0.62 0.65 0.72 0.84 0.89 1.00 1.14 1.29 1.44 1.49 1.48 1.63 1.58 1.41 1.16 0.85 0.72 0.64 0.58 0.52 0.50 0.43 0.41 0.38 0.36 0.36 0.35 0.35 0.33
0.93 0.99 0.96 0.92 0.88 0.69 0.64 0.59 0.54 0.52 0.53 0.55 0.59 0.63 0.61 0.58 0.58 0.63 0.71 0.82 0.95 1.11 1.31 1.51 1.63 1.72 1.78 1.64 1.43 1.17 0.85 0.65 0.58 0.57 0.59 0.52 0.47 0.44 0.39 0.35 0.39 0.36 0.35
0.98 0.99 0.96 0.93 0.89 0.84 0.71 0.57 0.52 0.52 0.55 0.59 0.61 0.62 0.54 0.46 0.51 0.52 0.56 0.60 0.67 0.77 0.92 1.13 1.32 1.42 1.61 1.73 1.60 1.30 1.03 0.82 0.66 0.62 0.64 0.55 0.52 0.50 0.44 0.40 0.45 0.39 0.34
1.21 1.14 1.04 1.00 0.97 0.91 0.78 0.64 0.60 0.54 0.55 0.57 0.60 0.61 0.57 0.50 0.49 0.54 0.58 0.56 0.55 0.57 0.64 0.74 0.88 1.10 1.31 1.53 1.59 1.47 1.37 1.11 0.85 0.68 0.65 0.57 0.48 0.45 0.45 0.43 0.45 0.42 0.38
1.29 1.22 1.16 1.12 1.10 1.06 0.92 0.72 0.62 0.59 0.62 0.59 0.57 0.58 0.60 0.53 0.49 0.44 0.50 0.52 0.51 0.51 0.50 0.57 0.67 0.85 1.09 1.26 1.44 1.43 1.33 1.19 0.95 0.71 0.60 0.54 0.45 0.42 0.41 0.37 0.38 0.40 0.38
1.18 1.12 1.09 1.12 1.14 1.12 1.02 0.76 0.63 0.57 0.60 0.61 0.65 0.66 0.63 0.54 0.50 0.41 0.44 0.49 0.46 0.45 0.49 0.49 0.53 0.62 0.73 0.97 1.18 1.22 1.14 1.07 0.94 0.73 0.54 0.50 0.42 0.42 0.43 0.32 0.27 0.28 0.31